Tabellarische Ansicht des 21.4.2009


Die einzelnen Werte des Tages

Uhrzeit Temperatur Luftdruck Luftfeuchte Wind Hi-Wind Taupunkt THW Index Wind Chill Heat Index Solar- strahlung Regen

00:00

7.6 C

1022.5 hpa

83 %

0.0 km/h aus 116

3.2 km/h aus NNE

4.9 C

7.6 C

7.6 C

7.6 C

0 W/m

0.00 mm

00:05

7.4 C

1022.5 hpa

83 %

0.0 km/h aus 113

1.6 km/h aus NNE

4.7 C

7.4 C

7.4 C

7.4 C

0 W/m

0.00 mm

00:10

7.2 C

1022.5 hpa

84 %

0.0 km/h aus 117

0.0 km/h aus ---

4.7 C

7.2 C

7.2 C

7.2 C

0 W/m

0.00 mm

00:15

6.9 C

1022.5 hpa

84 %

0.0 km/h aus 115

0.0 km/h aus ---

4.4 C

6.9 C

6.9 C

6.9 C

0 W/m

0.00 mm

00:20

6.9 C

1022.5 hpa

85 %

0.0 km/h aus 117

3.2 km/h aus NNE

4.5 C

6.8 C

6.9 C

6.8 C

0 W/m

0.00 mm

00:25

6.8 C

1022.5 hpa

85 %

0.0 km/h aus 116

1.6 km/h aus NNE

4.5 C

6.8 C

6.8 C

6.8 C

0 W/m

0.00 mm

00:30

6.8 C

1022.6 hpa

85 %

0.0 km/h aus 116

0.0 km/h aus ---

4.4 C

6.7 C

6.8 C

6.7 C

0 W/m

0.00 mm

00:35

6.7 C

1022.6 hpa

85 %

0.0 km/h aus 115

0.0 km/h aus ---

4.3 C

6.6 C

6.7 C

6.6 C

0 W/m

0.00 mm

00:40

6.7 C

1022.6 hpa

85 %

0.0 km/h aus 117

1.6 km/h aus NNE

4.3 C

6.6 C

6.7 C

6.6 C

0 W/m

0.00 mm

00:45

6.3 C

1022.7 hpa

84 %

0.0 km/h aus 117

0.0 km/h aus ---

3.8 C

6.2 C

6.3 C

6.2 C

0 W/m

0.00 mm

00:50

6.0 C

1022.7 hpa

84 %

0.0 km/h aus 117

0.0 km/h aus ---

3.5 C

5.9 C

6.0 C

5.9 C

0 W/m

0.00 mm

00:55

5.9 C

1022.7 hpa

85 %

0.0 km/h aus 116

0.0 km/h aus ---

3.6 C

5.8 C

5.9 C

5.8 C

0 W/m

0.00 mm

01:00

5.9 C

1022.7 hpa

85 %

0.0 km/h aus 118

0.0 km/h aus ---

3.6 C

5.9 C

5.9 C

5.9 C

0 W/m

0.00 mm

01:05

5.9 C

1022.7 hpa

85 %

0.0 km/h aus 114

0.0 km/h aus ---

3.6 C

5.9 C

5.9 C

5.9 C

0 W/m

0.00 mm

01:10

5.9 C

1022.7 hpa

85 %

0.0 km/h aus 117

0.0 km/h aus ---

3.6 C

5.8 C

5.9 C

5.8 C

0 W/m

0.00 mm

01:15

5.6 C

1022.8 hpa

85 %

0.0 km/h aus 117

0.0 km/h aus ---

3.3 C

5.5 C

5.6 C

5.5 C

0 W/m

0.00 mm

01:20

5.4 C

1022.8 hpa

86 %

1.6 km/h aus 116

3.2 km/h aus NNE

3.3 C

5.3 C

5.4 C

5.3 C

0 W/m

0.00 mm

01:25

5.3 C

1022.8 hpa

86 %

0.0 km/h aus 117

3.2 km/h aus NNE

3.1 C

5.2 C

5.3 C

5.2 C

0 W/m

0.00 mm

01:30

5.3 C

1022.8 hpa

87 %

0.0 km/h aus 117

0.0 km/h aus ---

3.3 C

5.3 C

5.3 C

5.3 C

0 W/m

0.00 mm

01:35

5.6 C

1022.8 hpa

87 %

0.0 km/h aus 117

0.0 km/h aus ---

3.6 C

5.5 C

5.6 C

5.5 C

0 W/m

0.00 mm

01:40

5.6 C

1022.8 hpa

86 %

0.0 km/h aus 116

0.0 km/h aus ---

3.5 C

5.5 C

5.6 C

5.5 C

0 W/m

0.00 mm

01:45

5.4 C

1022.7 hpa

86 %

0.0 km/h aus 116

0.0 km/h aus ---

3.2 C

5.3 C

5.4 C

5.3 C

0 W/m

0.00 mm

01:50

5.2 C

1022.7 hpa

86 %

0.0 km/h aus 116

0.0 km/h aus ---

3.1 C

5.1 C

5.2 C

5.1 C

0 W/m

0.00 mm

01:55

5.2 C

1022.7 hpa

87 %

0.0 km/h aus 116

0.0 km/h aus ---

3.2 C

5.2 C

5.2 C

5.2 C

0 W/m

0.00 mm

02:00

5.3 C

1022.6 hpa

87 %

0.0 km/h aus 117

0.0 km/h aus ---

3.3 C

5.2 C

5.3 C

5.2 C

0 W/m

0.00 mm

02:05

5.2 C

1022.6 hpa

87 %

0.0 km/h aus 118

0.0 km/h aus ---

3.2 C

5.1 C

5.2 C

5.1 C

0 W/m

0.00 mm

02:10

4.9 C

1022.6 hpa

87 %

0.0 km/h aus 117

0.0 km/h aus ---

3.0 C

4.8 C

4.9 C

4.8 C

0 W/m

0.00 mm

02:15

4.9 C

1022.5 hpa

88 %

0.0 km/h aus 115

0.0 km/h aus ---

3.1 C

4.8 C

4.9 C

4.8 C

0 W/m

0.00 mm

02:20

4.8 C

1022.5 hpa

87 %

0.0 km/h aus 116

0.0 km/h aus ---

2.9 C

4.7 C

4.8 C

4.7 C

0 W/m

0.00 mm

02:25

4.7 C

1022.5 hpa

87 %

0.0 km/h aus 115

0.0 km/h aus ---

2.7 C

4.6 C

4.7 C

4.6 C

0 W/m

0.00 mm

02:30

4.7 C

1022.4 hpa

88 %

0.0 km/h aus 117

0.0 km/h aus ---

2.8 C

4.6 C

4.7 C

4.6 C

0 W/m

0.00 mm

02:35

4.7 C

1022.4 hpa

88 %

0.0 km/h aus 117

0.0 km/h aus ---

2.9 C

4.7 C

4.7 C

4.7 C

0 W/m

0.00 mm

02:40

4.6 C

1022.4 hpa

88 %

0.0 km/h aus 117

0.0 km/h aus ---

2.8 C

4.6 C

4.6 C

4.6 C

0 W/m

0.00 mm

02:45

4.6 C

1022.4 hpa

88 %

0.0 km/h aus 116

0.0 km/h aus ---

2.8 C

4.6 C

4.6 C

4.6 C

0 W/m

0.00 mm

02:50

4.6 C

1022.4 hpa

89 %

0.0 km/h aus 117

0.0 km/h aus ---

3.0 C

4.6 C

4.6 C

4.6 C

0 W/m

0.00 mm

02:55

4.6 C

1022.4 hpa

89 %

0.0 km/h aus 117

0.0 km/h aus ---

3.0 C

4.6 C

4.6 C

4.6 C

0 W/m

0.00 mm

03:00

4.5 C

1022.5 hpa

88 %

0.0 km/h aus 114

0.0 km/h aus ---

2.7 C

4.4 C

4.5 C

4.4 C

0 W/m

0.00 mm

03:05

4.6 C

1022.5 hpa

89 %

0.0 km/h aus 116

0.0 km/h aus ---

3.0 C

4.6 C

4.6 C

4.6 C

0 W/m

0.00 mm

03:10

4.7 C

1022.5 hpa

89 %

0.0 km/h aus 118

0.0 km/h aus ---

3.0 C

4.6 C

4.7 C

4.6 C

0 W/m

0.00 mm

03:15

4.4 C

1022.5 hpa

88 %

0.0 km/h aus 115

0.0 km/h aus ---

2.6 C

4.4 C

4.4 C

4.4 C

0 W/m

0.00 mm

03:20

4.3 C

1022.5 hpa

89 %

0.0 km/h aus 115

0.0 km/h aus ---

2.6 C

4.2 C

4.3 C

4.2 C

0 W/m

0.00 mm

03:25

4.1 C

1022.5 hpa

89 %

0.0 km/h aus 117

0.0 km/h aus ---

2.5 C

4.1 C

4.1 C

4.1 C

0 W/m

0.00 mm

03:30

4.2 C

1022.4 hpa

90 %

0.0 km/h aus 116

0.0 km/h aus ---

2.7 C

4.1 C

4.2 C

4.1 C

0 W/m

0.00 mm

03:35

4.3 C

1022.4 hpa

90 %

0.0 km/h aus 116

0.0 km/h aus ---

2.8 C

4.3 C

4.3 C

4.3 C

0 W/m

0.00 mm

03:40

4.4 C

1022.4 hpa

90 %

0.0 km/h aus 117

0.0 km/h aus ---

2.9 C

4.4 C

4.4 C

4.4 C

0 W/m

0.00 mm

03:45

4.6 C

1022.4 hpa

91 %

0.0 km/h aus 116

0.0 km/h aus ---

3.2 C

4.5 C

4.6 C

4.5 C

0 W/m

0.00 mm

03:50

4.5 C

1022.4 hpa

90 %

0.0 km/h aus 117

0.0 km/h aus ---

3.0 C

4.4 C

4.5 C

4.4 C

0 W/m

0.00 mm

03:55

4.1 C

1022.4 hpa

89 %

0.0 km/h aus 117

0.0 km/h aus ---

2.4 C

4.0 C

4.1 C

4.0 C

0 W/m

0.00 mm

04:00

3.8 C

1022.4 hpa

90 %

0.0 km/h aus 116

0.0 km/h aus ---

2.3 C

3.7 C

3.8 C

3.7 C

0 W/m

0.00 mm

04:05

3.6 C

1022.4 hpa

90 %

0.0 km/h aus 116

0.0 km/h aus ---

2.1 C

3.6 C

3.6 C

3.6 C

0 W/m

0.00 mm

04:10

3.7 C

1022.4 hpa

91 %

0.0 km/h aus 116

0.0 km/h aus ---

2.3 C

3.6 C

3.7 C

3.6 C

0 W/m

0.00 mm

04:15

3.6 C

1022.5 hpa

91 %

0.0 km/h aus 117

0.0 km/h aus ---

2.3 C

3.6 C

3.6 C

3.6 C

0 W/m

0.00 mm

04:20

3.5 C

1022.5 hpa

91 %

0.0 km/h aus 117

0.0 km/h aus ---

2.2 C

3.4 C

3.5 C

3.4 C

0 W/m

0.00 mm

04:25

3.4 C

1022.5 hpa

91 %

0.0 km/h aus 116

0.0 km/h aus ---

2.1 C

3.4 C

3.4 C

3.4 C

0 W/m

0.00 mm

04:30

3.4 C

1022.6 hpa

91 %

0.0 km/h aus 117

0.0 km/h aus ---

2.1 C

3.4 C

3.4 C

3.4 C

0 W/m

0.00 mm

04:35

3.4 C

1022.6 hpa

91 %

0.0 km/h aus 114

0.0 km/h aus ---

2.1 C

3.4 C

3.4 C

3.4 C

0 W/m

0.00 mm

04:40

3.4 C

1022.6 hpa

91 %

0.0 km/h aus 115

0.0 km/h aus ---

2.1 C

3.4 C

3.4 C

3.4 C

0 W/m

0.00 mm

04:45

3.3 C

1022.5 hpa

91 %

0.0 km/h aus 117

0.0 km/h aus ---

2.0 C

3.3 C

3.3 C

3.3 C

0 W/m

0.00 mm

04:50

3.3 C

1022.5 hpa

91 %

0.0 km/h aus 117

0.0 km/h aus ---

1.9 C

3.2 C

3.3 C

3.2 C

0 W/m

0.00 mm

04:55

3.2 C

1022.5 hpa

91 %

0.0 km/h aus 115

0.0 km/h aus ---

1.8 C

3.1 C

3.2 C

3.1 C

0 W/m

0.00 mm

05:00

3.2 C

1022.4 hpa

91 %

0.0 km/h aus 117

0.0 km/h aus ---

1.8 C

3.1 C

3.2 C

3.1 C

0 W/m

0.00 mm

05:05

3.1 C

1022.4 hpa

92 %

0.0 km/h aus 117

0.0 km/h aus ---

1.9 C

3.1 C

3.1 C

3.1 C

0 W/m

0.00 mm

05:10

2.9 C

1022.4 hpa

91 %

0.0 km/h aus 117

0.0 km/h aus ---

1.6 C

2.9 C

2.9 C

2.9 C

0 W/m

0.00 mm

05:15

2.8 C

1022.5 hpa

92 %

0.0 km/h aus 115

0.0 km/h aus ---

1.7 C

2.8 C

2.8 C

2.8 C

0 W/m

0.00 mm

05:20

2.8 C

1022.5 hpa

92 %

0.0 km/h aus 116

0.0 km/h aus ---

1.6 C

2.7 C

2.8 C

2.7 C

0 W/m

0.00 mm

05:25

2.8 C

1022.5 hpa

92 %

0.0 km/h aus 115

0.0 km/h aus ---

1.7 C

2.8 C

2.8 C

2.8 C

0 W/m

0.00 mm

05:30

2.8 C

1022.4 hpa

92 %

0.0 km/h aus 116

0.0 km/h aus ---

1.7 C

2.8 C

2.8 C

2.8 C

0 W/m

0.00 mm

05:35

2.9 C

1022.4 hpa

92 %

0.0 km/h aus 116

0.0 km/h aus ---

1.8 C

2.9 C

2.9 C

2.9 C

0 W/m

0.00 mm

05:40

2.9 C

1022.4 hpa

92 %

0.0 km/h aus 117

0.0 km/h aus ---

1.7 C

2.8 C

2.9 C

2.8 C

0 W/m

0.00 mm

05:45

2.7 C

1022.5 hpa

92 %

0.0 km/h aus 117

0.0 km/h aus ---

1.6 C

2.7 C

2.7 C

2.7 C

0 W/m

0.00 mm

05:50

2.5 C

1022.5 hpa

92 %

0.0 km/h aus 117

0.0 km/h aus ---

1.3 C

2.4 C

2.5 C

2.4 C

0 W/m

0.00 mm

05:55

2.4 C

1022.5 hpa

92 %

0.0 km/h aus 116

0.0 km/h aus ---

1.3 C

2.4 C

2.4 C

2.4 C

0 W/m

0.00 mm

06:00

2.4 C

1022.6 hpa

92 %

0.0 km/h aus 116

0.0 km/h aus ---

1.3 C

2.4 C

2.4 C

2.4 C

0 W/m

0.00 mm

06:05

2.7 C

1022.6 hpa

93 %

0.0 km/h aus 117

0.0 km/h aus ---

1.6 C

2.7 C

2.7 C

2.7 C

0 W/m

0.00 mm

06:10

2.7 C

1022.6 hpa

93 %

0.0 km/h aus 117

0.0 km/h aus ---

1.6 C

2.7 C

2.7 C

2.7 C

0 W/m

0.00 mm

06:15

2.7 C

1022.7 hpa

93 %

0.0 km/h aus 117

0.0 km/h aus ---

1.6 C

2.7 C

2.7 C

2.7 C

0 W/m

0.00 mm

06:20

2.8 C

1022.7 hpa

93 %

0.0 km/h aus 117

0.0 km/h aus ---

1.8 C

2.8 C

2.8 C

2.8 C

0 W/m

0.00 mm

06:25

2.8 C

1022.7 hpa

93 %

0.0 km/h aus 116

0.0 km/h aus ---

1.8 C

2.8 C

2.8 C

2.8 C

0 W/m

0.00 mm

06:30

2.8 C

1022.8 hpa

93 %

0.0 km/h aus 115

0.0 km/h aus ---

1.8 C

2.8 C

2.8 C

2.8 C

0 W/m

0.00 mm

06:35

2.7 C

1022.8 hpa

93 %

0.0 km/h aus 116

0.0 km/h aus ---

1.7 C

2.7 C

2.7 C

2.7 C

0 W/m

0.00 mm

06:40

2.8 C

1022.8 hpa

93 %

0.0 km/h aus 116

0.0 km/h aus ---

1.8 C

2.8 C

2.8 C

2.8 C

0 W/m

0.00 mm

06:45

2.7 C

1022.9 hpa

93 %

0.0 km/h aus 117

0.0 km/h aus ---

1.7 C

2.7 C

2.7 C

2.7 C

0 W/m

0.00 mm

06:50

2.6 C

1022.9 hpa

93 %

0.0 km/h aus 117

0.0 km/h aus ---

1.6 C

2.6 C

2.6 C

2.6 C

0 W/m

0.00 mm

06:55

2.6 C

1022.9 hpa

93 %

0.0 km/h aus 116

0.0 km/h aus ---

1.6 C

2.6 C

2.6 C

2.6 C

0 W/m

0.00 mm

07:00

2.6 C

1022.9 hpa

93 %

0.0 km/h aus 117

0.0 km/h aus ---

1.6 C

2.6 C

2.6 C

2.6 C

0 W/m

0.00 mm

07:05

2.8 C

1022.9 hpa

93 %

0.0 km/h aus 116

0.0 km/h aus ---

1.8 C

2.8 C

2.8 C

2.8 C

0 W/m

0.00 mm

07:10

2.8 C

1022.9 hpa

93 %

0.0 km/h aus 117

0.0 km/h aus ---

1.8 C

2.8 C

2.8 C

2.8 C

0 W/m

0.00 mm

07:15

2.8 C

1023.1 hpa

93 %

0.0 km/h aus 116

0.0 km/h aus ---

1.8 C

2.8 C

2.8 C

2.8 C

0 W/m

0.00 mm

07:20

3.0 C

1023.1 hpa

94 %

0.0 km/h aus 116

0.0 km/h aus ---

2.1 C

3.0 C

3.0 C

3.0 C

0 W/m

0.00 mm

07:25

3.2 C

1023.1 hpa

94 %

0.0 km/h aus 116

0.0 km/h aus ---

2.3 C

3.2 C

3.2 C

3.2 C

0 W/m

0.00 mm

07:30

3.4 C

1023.2 hpa

94 %

0.0 km/h aus 116

0.0 km/h aus ---

2.5 C

3.4 C

3.4 C

3.4 C

0 W/m

0.00 mm

07:35

3.8 C

1023.2 hpa

94 %

0.0 km/h aus 116

0.0 km/h aus ---

2.9 C

3.8 C

3.8 C

3.8 C

0 W/m

0.00 mm

07:40

4.1 C

1023.2 hpa

94 %

0.0 km/h aus 117

0.0 km/h aus ---

3.2 C

4.1 C

4.1 C

4.1 C

0 W/m

0.00 mm

07:45

4.3 C

1023.2 hpa

94 %

0.0 km/h aus 117

0.0 km/h aus ---

3.5 C

4.3 C

4.3 C

4.3 C

0 W/m

0.00 mm

07:50

4.7 C

1023.2 hpa

94 %

0.0 km/h aus 117

0.0 km/h aus ---

3.8 C

4.7 C

4.7 C

4.7 C

0 W/m

0.00 mm

07:55

4.9 C

1023.2 hpa

94 %

0.0 km/h aus 117

0.0 km/h aus ---

4.1 C

5.0 C

4.9 C

5.0 C

0 W/m

0.00 mm

08:00

5.2 C

1023.3 hpa

94 %

0.0 km/h aus 117

0.0 km/h aus ---

4.3 C

5.3 C

5.2 C

5.3 C

0 W/m

0.00 mm

08:05

5.6 C

1023.3 hpa

94 %

0.0 km/h aus 117

0.0 km/h aus ---

4.7 C

5.7 C

5.6 C

5.7 C

0 W/m

0.00 mm

08:10

5.9 C

1023.3 hpa

94 %

0.0 km/h aus 116

0.0 km/h aus ---

5.1 C

6.0 C

5.9 C

6.0 C

0 W/m

0.00 mm

08:15

6.3 C

1023.3 hpa

94 %

0.0 km/h aus 116

0.0 km/h aus ---

5.4 C

6.4 C

6.3 C

6.4 C

0 W/m

0.00 mm

08:20

6.7 C

1023.3 hpa

93 %

0.0 km/h aus 117

0.0 km/h aus ---

5.7 C

6.8 C

6.7 C

6.8 C

0 W/m

0.00 mm

08:25

7.1 C

1023.3 hpa

91 %

0.0 km/h aus 117

1.6 km/h aus NNE

5.7 C

7.1 C

7.1 C

7.1 C

0 W/m

0.00 mm

08:30

7.3 C

1023.3 hpa

89 %

0.0 km/h aus 118

0.0 km/h aus ---

5.6 C

7.4 C

7.3 C

7.4 C

0 W/m

0.00 mm

08:35

7.6 C

1023.3 hpa

86 %

0.0 km/h aus 117

1.6 km/h aus NNE

5.4 C

7.6 C

7.6 C

7.6 C

0 W/m

0.00 mm

08:40

8.1 C

1023.3 hpa

85 %

0.0 km/h aus 117

1.6 km/h aus NNE

5.7 C

8.1 C

8.1 C

8.1 C

0 W/m

0.00 mm

08:45

8.6 C

1023.3 hpa

83 %

0.0 km/h aus 116

3.2 km/h aus NNE

5.8 C

8.5 C

8.6 C

8.5 C

0 W/m

0.00 mm

08:50

8.8 C

1023.3 hpa

80 %

0.0 km/h aus 116

1.6 km/h aus NNE

5.5 C

8.7 C

8.8 C

8.7 C

0 W/m

0.00 mm

08:55

9.1 C

1023.3 hpa

79 %

0.0 km/h aus 116

1.6 km/h aus NNE

5.7 C

9.1 C

9.1 C

9.1 C

0 W/m

0.00 mm

09:00

9.3 C

1023.3 hpa

78 %

0.0 km/h aus 116

3.2 km/h aus N

5.7 C

9.2 C

9.3 C

9.2 C

0 W/m

0.00 mm

09:05

9.6 C

1023.3 hpa

77 %

1.6 km/h aus 116

3.2 km/h aus N

5.7 C

9.4 C

9.6 C

9.4 C

0 W/m

0.00 mm

09:10

9.7 C

1023.3 hpa

77 %

0.0 km/h aus 117

3.2 km/h aus N

5.8 C

9.6 C

9.7 C

9.6 C

0 W/m

0.00 mm

09:15

9.8 C

1023.3 hpa

76 %

0.0 km/h aus 116

1.6 km/h aus N

5.8 C

9.7 C

9.8 C

9.7 C

0 W/m

0.00 mm

09:20

10.2 C

1023.3 hpa

76 %

0.0 km/h aus 117

1.6 km/h aus N

6.1 C

10.1 C

10.2 C

10.1 C

0 W/m

0.00 mm

09:25

10.6 C

1023.3 hpa

75 %

0.0 km/h aus 117

3.2 km/h aus N

6.4 C

10.4 C

10.6 C

10.4 C

0 W/m

0.00 mm

09:30

10.7 C

1023.2 hpa

73 %

1.6 km/h aus 116

3.2 km/h aus N

6.1 C

10.5 C

10.7 C

10.5 C

0 W/m

0.00 mm

09:35

10.9 C

1023.2 hpa

73 %

0.0 km/h aus 116

3.2 km/h aus N

6.2 C

10.7 C

10.9 C

10.7 C

0 W/m

0.00 mm

09:40

11.1 C

1023.2 hpa

72 %

0.0 km/h aus 117

3.2 km/h aus N

6.3 C

10.8 C

11.1 C

10.8 C

0 W/m

0.00 mm

09:45

11.0 C

1023.2 hpa

73 %

0.0 km/h aus 117

1.6 km/h aus N

6.3 C

10.7 C

11.0 C

10.7 C

0 W/m

0.00 mm

09:50

11.4 C

1023.2 hpa

72 %

0.0 km/h aus 116

3.2 km/h aus N

6.6 C

11.1 C

11.4 C

11.1 C

0 W/m

0.00 mm

09:55

11.9 C

1023.2 hpa

70 %

0.0 km/h aus 117

3.2 km/h aus N

6.6 C

11.5 C

11.9 C

11.5 C

0 W/m

0.00 mm

10:00

12.0 C

1023.2 hpa

67 %

0.0 km/h aus 117

1.6 km/h aus N

6.1 C

11.5 C

12.0 C

11.5 C

0 W/m

0.00 mm

10:05

12.3 C

1023.2 hpa

69 %

1.6 km/h aus 117

3.2 km/h aus N

6.8 C

11.8 C

12.3 C

11.8 C

0 W/m

0.00 mm

10:10

12.2 C

1023.2 hpa

67 %

0.0 km/h aus 117

3.2 km/h aus N

6.2 C

11.7 C

12.2 C

11.7 C

0 W/m

0.00 mm

10:15

12.7 C

1023.1 hpa

66 %

1.6 km/h aus 117

3.2 km/h aus N

6.5 C

12.1 C

12.7 C

12.1 C

0 W/m

0.00 mm

10:20

12.9 C

1023.1 hpa

67 %

0.0 km/h aus 116

3.2 km/h aus N

7.0 C

12.4 C

12.9 C

12.4 C

0 W/m

0.00 mm

10:25

12.9 C

1023.1 hpa

65 %

1.6 km/h aus 116

3.2 km/h aus N

6.5 C

12.3 C

12.9 C

12.3 C

0 W/m

0.00 mm

10:30

13.3 C

1023.1 hpa

64 %

1.6 km/h aus 116

3.2 km/h aus N

6.6 C

12.7 C

13.3 C

12.7 C

0 W/m

0.00 mm

10:35

13.6 C

1023.1 hpa

65 %

1.6 km/h aus 117

4.8 km/h aus N

7.1 C

13.0 C

13.6 C

13.0 C

0 W/m

0.00 mm

10:40

13.8 C

1023.1 hpa

64 %

1.6 km/h aus 116

4.8 km/h aus N

7.1 C

13.2 C

13.8 C

13.2 C

0 W/m

0.00 mm

10:45

14.1 C

1022.9 hpa

65 %

1.6 km/h aus 116

4.8 km/h aus N

7.6 C

13.5 C

14.1 C

13.5 C

0 W/m

0.00 mm

10:50

14.4 C

1022.9 hpa

62 %

1.6 km/h aus 117

6.4 km/h aus N

7.2 C

13.7 C

14.4 C

13.7 C

0 W/m

0.00 mm

10:55

14.4 C

1022.9 hpa

61 %

1.6 km/h aus 116

4.8 km/h aus N

7.0 C

13.8 C

14.4 C

13.8 C

0 W/m

0.00 mm

11:00

14.7 C

1022.8 hpa

62 %

1.6 km/h aus 112

6.4 km/h aus N

7.5 C

14.0 C

14.7 C

14.0 C

0 W/m

0.00 mm

11:05

15.0 C

1022.8 hpa

62 %

1.6 km/h aus 115

4.8 km/h aus N

7.8 C

14.3 C

15.0 C

14.3 C

0 W/m

0.00 mm

11:10

14.9 C

1022.8 hpa

61 %

1.6 km/h aus 115

4.8 km/h aus N

7.4 C

14.2 C

14.9 C

14.2 C

0 W/m

0.00 mm

11:15

15.0 C

1022.7 hpa

63 %

1.6 km/h aus 113

6.4 km/h aus N

8.0 C

14.4 C

15.0 C

14.4 C

0 W/m

0.00 mm

11:20

15.2 C

1022.7 hpa

61 %

1.6 km/h aus 115

8.0 km/h aus N

7.7 C

14.6 C

15.2 C

14.6 C

0 W/m

0.00 mm

11:25

15.7 C

1022.7 hpa

62 %

3.2 km/h aus 112

8.0 km/h aus N

8.5 C

15.1 C

15.7 C

15.1 C

0 W/m

0.00 mm

11:30

15.7 C

1022.6 hpa

60 %

1.6 km/h aus 114

4.8 km/h aus N

8.0 C

15.0 C

15.7 C

15.0 C

0 W/m

0.00 mm

11:35

15.9 C

1022.6 hpa

63 %

1.6 km/h aus 114

4.8 km/h aus N

8.9 C

15.3 C

15.9 C

15.3 C

0 W/m

0.00 mm

11:40

15.9 C

1022.6 hpa

59 %

1.6 km/h aus 116

4.8 km/h aus N

7.9 C

15.2 C

15.9 C

15.2 C

0 W/m

0.00 mm

11:45

16.4 C

1022.5 hpa

59 %

1.6 km/h aus 111

6.4 km/h aus N

8.4 C

15.7 C

16.4 C

15.7 C

0 W/m

0.00 mm

11:50

16.6 C

1022.5 hpa

56 %

1.6 km/h aus 113

4.8 km/h aus N

7.7 C

15.7 C

16.6 C

15.7 C

0 W/m

0.00 mm

11:55

16.9 C

1022.5 hpa

58 %

3.2 km/h aus 113

9.7 km/h aus NNW

8.6 C

16.2 C

16.9 C

16.2 C

0 W/m

0.00 mm

12:00

16.9 C

1022.3 hpa

52 %

3.2 km/h aus 111

6.4 km/h aus NNW

7.0 C

16.0 C

16.9 C

16.0 C

0 W/m

0.00 mm

12:05

17.3 C

1022.3 hpa

53 %

3.2 km/h aus 113

8.0 km/h aus NNW

7.6 C

16.4 C

17.3 C

16.4 C

0 W/m

0.00 mm

12:10

17.3 C

1022.3 hpa

53 %

3.2 km/h aus 113

6.4 km/h aus NNW

7.7 C

16.4 C

17.3 C

16.4 C

0 W/m

0.00 mm

12:15

17.7 C

1022.3 hpa

51 %

3.2 km/h aus 114

9.7 km/h aus NNE

7.4 C

16.8 C

17.7 C

16.8 C

0 W/m

0.00 mm

12:20

17.8 C

1022.3 hpa

52 %

3.2 km/h aus 112

8.0 km/h aus NNE

7.8 C

16.9 C

17.8 C

16.9 C

0 W/m

0.00 mm

12:25

17.5 C

1022.3 hpa

51 %

3.2 km/h aus 114

8.0 km/h aus ENE

7.2 C

16.5 C

17.5 C

16.5 C

0 W/m

0.00 mm

12:30

17.4 C

1022.2 hpa

50 %

4.8 km/h aus 115

8.0 km/h aus SW

6.9 C

16.4 C

17.4 C

16.4 C

0 W/m

0.00 mm

12:35

17.4 C

1022.2 hpa

51 %

4.8 km/h aus 113

8.0 km/h aus SSW

7.2 C

16.4 C

17.4 C

16.4 C

0 W/m

0.00 mm

12:40

18.0 C

1022.2 hpa

52 %

1.6 km/h aus 112

6.4 km/h aus NNW

8.0 C

17.1 C

18.0 C

17.1 C

0 W/m

0.00 mm

12:45

18.2 C

1022.2 hpa

48 %

3.2 km/h aus 115

9.7 km/h aus N

7.0 C

17.2 C

18.2 C

17.2 C

0 W/m

0.00 mm

12:50

18.5 C

1022.2 hpa

45 %

1.6 km/h aus 115

8.0 km/h aus N

6.3 C

17.3 C

18.5 C

17.3 C

0 W/m

0.00 mm

12:55

18.7 C

1022.2 hpa

46 %

3.2 km/h aus 112

8.0 km/h aus N

6.8 C

17.6 C

18.7 C

17.6 C

0 W/m

0.00 mm

13:00

18.5 C

1022.0 hpa

42 %

3.2 km/h aus 114

9.7 km/h aus N

5.3 C

17.2 C

18.5 C

17.2 C

0 W/m

0.00 mm

13:05

18.7 C

1022.0 hpa

46 %

3.2 km/h aus 115

11.3 km/h aus NE

6.8 C

17.6 C

18.7 C

17.6 C

0 W/m

0.00 mm

13:10

18.8 C

1022.0 hpa

43 %

4.8 km/h aus 110

11.3 km/h aus ENE

5.9 C

17.5 C

18.8 C

17.5 C

0 W/m

0.00 mm

13:15

18.4 C

1021.8 hpa

46 %

3.2 km/h aus 108

8.0 km/h aus E

6.6 C

17.2 C

18.4 C

17.2 C

0 W/m

0.00 mm

13:20

18.7 C

1021.8 hpa

46 %

4.8 km/h aus 116

9.7 km/h aus E

6.9 C

17.6 C

18.7 C

17.6 C

0 W/m

0.00 mm

13:25

18.8 C

1021.8 hpa

44 %

3.2 km/h aus 114

8.0 km/h aus E

6.3 C

17.6 C

18.8 C

17.6 C

0 W/m

0.00 mm

13:30

18.8 C

1021.7 hpa

45 %

3.2 km/h aus 114

8.0 km/h aus ENE

6.6 C

17.7 C

18.8 C

17.7 C

0 W/m

0.00 mm

13:35

19.3 C

1021.7 hpa

45 %

4.8 km/h aus 115

9.7 km/h aus E

7.0 C

18.2 C

19.3 C

18.2 C

0 W/m

0.00 mm

13:40

19.1 C

1021.7 hpa

42 %

3.2 km/h aus 112

8.0 km/h aus E

5.9 C

17.8 C

19.1 C

17.8 C

0 W/m

0.00 mm

13:45

19.0 C

1021.7 hpa

44 %

1.6 km/h aus 114

6.4 km/h aus SE

6.5 C

17.8 C

19.0 C

17.8 C

0 W/m

0.00 mm

13:50

19.2 C

1021.7 hpa

43 %

1.6 km/h aus 116

4.8 km/h aus SE

6.3 C

18.0 C

19.2 C

18.0 C

0 W/m

0.00 mm

13:55

19.3 C

1021.7 hpa

43 %

1.6 km/h aus 117

4.8 km/h aus SE

6.4 C

18.1 C

19.3 C

18.1 C

0 W/m

0.00 mm

14:00

19.5 C

1021.6 hpa

40 %

3.2 km/h aus 114

8.0 km/h aus ENE

5.5 C

18.1 C

19.5 C

18.1 C

0 W/m

0.00 mm

14:05

19.8 C

1021.6 hpa

44 %

8.0 km/h aus 116

17.7 km/h aus ESE

7.2 C

18.7 C

19.8 C

18.7 C

0 W/m

0.00 mm

14:10

19.4 C

1021.6 hpa

43 %

3.2 km/h aus 116

9.7 km/h aus E

6.5 C

18.3 C

19.4 C

18.3 C

0 W/m

0.00 mm

14:15

19.5 C

1021.5 hpa

42 %

1.6 km/h aus 114

6.4 km/h aus E

6.2 C

18.2 C

19.5 C

18.2 C

0 W/m

0.00 mm

14:20

19.4 C

1021.5 hpa

41 %

3.2 km/h aus 116

17.7 km/h aus E

5.8 C

18.1 C

19.4 C

18.1 C

0 W/m

0.00 mm

14:25

19.8 C

1021.5 hpa

41 %

4.8 km/h aus 115

9.7 km/h aus ENE

6.1 C

18.5 C

19.8 C

18.5 C

0 W/m

0.00 mm

14:30

19.8 C

1021.3 hpa

41 %

4.8 km/h aus 115

11.3 km/h aus ENE

6.1 C

18.5 C

19.8 C

18.5 C

0 W/m

0.00 mm

14:35

20.0 C

1021.3 hpa

42 %

3.2 km/h aus 115

6.4 km/h aus SE

6.7 C

18.8 C

20.0 C

18.8 C

0 W/m

0.00 mm

14:40

19.7 C

1021.3 hpa

43 %

3.2 km/h aus 116

6.4 km/h aus SE

6.8 C

18.6 C

19.7 C

18.6 C

0 W/m

0.00 mm

14:45

19.5 C

1021.2 hpa

45 %

4.8 km/h aus 114

9.7 km/h aus S

7.2 C

18.4 C

19.5 C

18.4 C

0 W/m

0.00 mm

14:50

19.6 C

1021.2 hpa

43 %

3.2 km/h aus 113

6.4 km/h aus S

6.6 C

18.4 C

19.6 C

18.4 C

0 W/m

0.00 mm

14:55

19.6 C

1021.2 hpa

40 %

1.6 km/h aus 113

4.8 km/h aus SSE

5.6 C

18.2 C

19.6 C

18.2 C

0 W/m

0.00 mm

15:00

19.8 C

1021.1 hpa

43 %

3.2 km/h aus 113

6.4 km/h aus SSE

6.9 C

18.7 C

19.8 C

18.7 C

0 W/m

0.00 mm

15:05

19.7 C

1021.1 hpa

40 %

1.6 km/h aus 115

4.8 km/h aus SSE

5.7 C

18.3 C

19.7 C

18.3 C

0 W/m

0.00 mm

15:10

19.7 C

1021.1 hpa

40 %

3.2 km/h aus 114

6.4 km/h aus NNE

5.7 C

18.3 C

19.7 C

18.3 C

0 W/m

0.00 mm

15:15

19.6 C

1020.9 hpa

44 %

3.2 km/h aus 117

8.0 km/h aus NE

7.0 C

18.5 C

19.6 C

18.5 C

0 W/m

0.00 mm

15:20

19.9 C

1020.9 hpa

41 %

0.0 km/h aus 116

4.8 km/h aus NE

6.2 C

18.6 C

19.9 C

18.6 C

0 W/m

0.00 mm

15:25

20.0 C

1020.9 hpa

41 %

4.8 km/h aus 116

8.0 km/h aus ESE

6.3 C

18.7 C

20.0 C

18.7 C

0 W/m

0.00 mm

15:30

20.1 C

1020.7 hpa

41 %

6.4 km/h aus 115

16.1 km/h aus E

6.4 C

18.8 C

20.1 C

18.8 C

0 W/m

0.00 mm

15:35

20.1 C

1020.7 hpa

39 %

4.8 km/h aus 116

14.5 km/h aus ENE

5.7 C

18.7 C

20.1 C

18.7 C

0 W/m

0.00 mm

15:40

20.0 C

1020.7 hpa

41 %

3.2 km/h aus 115

8.0 km/h aus NE

6.3 C

18.7 C

20.0 C

18.7 C

0 W/m

0.00 mm

15:45

20.2 C

1020.6 hpa

40 %

3.2 km/h aus 113

11.3 km/h aus NW

6.1 C

18.8 C

20.2 C

18.8 C

0 W/m

0.00 mm

15:50

20.2 C

1020.6 hpa

40 %

3.2 km/h aus 114

9.7 km/h aus ENE

6.2 C

18.9 C

20.2 C

18.9 C

0 W/m

0.00 mm

15:55

20.5 C

1020.6 hpa

38 %

4.8 km/h aus 114

16.1 km/h aus NE

5.7 C

19.1 C

20.5 C

19.1 C

0 W/m

0.00 mm

16:00

20.4 C

1020.5 hpa

39 %

6.4 km/h aus 116

16.1 km/h aus NNE

6.0 C

19.1 C

20.4 C

19.1 C

0 W/m

0.00 mm

16:05

20.3 C

1020.5 hpa

38 %

3.2 km/h aus 115

9.7 km/h aus NE

5.5 C

18.8 C

20.3 C

18.8 C

0 W/m

0.00 mm

16:10

20.5 C

1020.5 hpa

37 %

3.2 km/h aus 114

11.3 km/h aus ENE

5.3 C

18.9 C

20.5 C

18.9 C

0 W/m

0.00 mm

16:15

20.2 C

1020.3 hpa

36 %

4.8 km/h aus 116

14.5 km/h aus ENE

4.6 C

18.6 C

20.2 C

18.6 C

0 W/m

0.00 mm

16:20

20.1 C

1020.3 hpa

37 %

8.0 km/h aus 115

16.1 km/h aus E

5.0 C

18.6 C

20.1 C

18.6 C

0 W/m

0.00 mm

16:25

20.2 C

1020.3 hpa

38 %

1.6 km/h aus 116

8.0 km/h aus E

5.4 C

18.7 C

20.2 C

18.7 C

0 W/m

0.00 mm

16:30

20.3 C

1020.2 hpa

38 %

4.8 km/h aus 114

9.7 km/h aus NE

5.5 C

18.8 C

20.3 C

18.8 C

0 W/m

0.00 mm

16:35

20.2 C

1020.2 hpa

37 %

4.8 km/h aus 116

9.7 km/h aus NE

5.1 C

18.7 C

20.2 C

18.7 C

0 W/m

0.00 mm

16:40

20.3 C

1020.2 hpa

36 %

4.8 km/h aus 114

14.5 km/h aus NE

4.7 C

18.7 C

20.3 C

18.7 C

0 W/m

0.00 mm

16:45

20.3 C

1020.2 hpa

38 %

1.6 km/h aus 113

6.4 km/h aus ENE

5.5 C

18.9 C

20.3 C

18.9 C

0 W/m

0.00 mm

16:50

20.6 C

1020.2 hpa

36 %

3.2 km/h aus 117

9.7 km/h aus ENE

5.0 C

19.0 C

20.6 C

19.0 C

0 W/m

0.00 mm

16:55

20.4 C

1020.2 hpa

36 %

3.2 km/h aus 115

8.0 km/h aus E

4.8 C

18.8 C

20.4 C

18.8 C

0 W/m

0.00 mm

17:00

20.3 C

1020.1 hpa

40 %

4.8 km/h aus 117

14.5 km/h aus NE

6.3 C

19.0 C

20.3 C

19.0 C

0 W/m

0.00 mm

17:05

20.4 C

1020.1 hpa

39 %

4.8 km/h aus 112

11.3 km/h aus ENE

6.0 C

19.0 C

20.4 C

19.0 C

0 W/m

0.00 mm

17:10

20.3 C

1020.1 hpa

36 %

3.2 km/h aus 116

8.0 km/h aus ENE

4.7 C

18.7 C

20.3 C

18.7 C

0 W/m

0.00 mm

17:15

20.3 C

1020.0 hpa

37 %

4.8 km/h aus 117

11.3 km/h aus ENE

5.2 C

18.8 C

20.3 C

18.8 C

0 W/m

0.00 mm

17:20

20.1 C

1020.0 hpa

36 %

3.2 km/h aus 115

11.3 km/h aus E

4.6 C

18.5 C

20.1 C

18.5 C

0 W/m

0.00 mm

17:25

20.2 C

1020.0 hpa

36 %

4.8 km/h aus 116

12.9 km/h aus ENE

4.7 C

18.6 C

20.2 C

18.6 C

0 W/m

0.00 mm

17:30

20.0 C

1019.9 hpa

36 %

4.8 km/h aus 116

11.3 km/h aus NE

4.5 C

18.4 C

20.0 C

18.4 C

0 W/m

0.00 mm

17:35

20.1 C

1019.9 hpa

38 %

3.2 km/h aus 112

8.0 km/h aus NE

5.3 C

18.6 C

20.1 C

18.6 C

0 W/m

0.00 mm

17:40

20.2 C

1019.9 hpa

39 %

3.2 km/h aus 116

9.7 km/h aus NE

5.8 C

18.8 C

20.2 C

18.8 C

0 W/m

0.00 mm

17:45

19.9 C

1019.7 hpa

37 %

3.2 km/h aus 116

8.0 km/h aus NE

4.8 C

18.4 C

19.9 C

18.4 C

0 W/m

0.00 mm

17:50

19.8 C

1019.7 hpa

36 %

3.2 km/h aus 115

11.3 km/h aus NNE

4.3 C

18.2 C

19.8 C

18.2 C

0 W/m

0.00 mm

17:55

19.8 C

1019.7 hpa

37 %

1.6 km/h aus 117

6.4 km/h aus NNE

4.7 C

18.3 C

19.8 C

18.3 C

0 W/m

0.00 mm

18:00

19.8 C

1019.6 hpa

36 %

3.2 km/h aus 117

9.7 km/h aus NE

4.3 C

18.2 C

19.8 C

18.2 C

0 W/m

0.00 mm

18:05

19.9 C

1019.6 hpa

37 %

1.6 km/h aus 115

6.4 km/h aus NE

4.8 C

18.4 C

19.9 C

18.4 C

0 W/m

0.00 mm

18:10

19.7 C

1019.6 hpa

37 %

3.2 km/h aus 111

9.7 km/h aus NE

4.6 C

18.1 C

19.7 C

18.1 C

0 W/m

0.00 mm

18:15

19.7 C

1019.6 hpa

38 %

1.6 km/h aus 113

4.8 km/h aus NNE

5.0 C

18.2 C

19.7 C

18.2 C

0 W/m

0.00 mm

18:20

19.6 C

1019.6 hpa

38 %

1.6 km/h aus 114

8.0 km/h aus N

4.8 C

18.1 C

19.6 C

18.1 C

0 W/m

0.00 mm

18:25

19.3 C

1019.6 hpa

38 %

0.0 km/h aus 117

3.2 km/h aus N

4.6 C

17.8 C

19.3 C

17.8 C

0 W/m

0.00 mm

18:30

19.4 C

1019.6 hpa

36 %

3.2 km/h aus 112

8.0 km/h aus N

3.9 C

17.7 C

19.4 C

17.7 C

0 W/m

0.00 mm

18:35

19.3 C

1019.6 hpa

37 %

0.0 km/h aus 114

3.2 km/h aus N

4.3 C

17.7 C

19.3 C

17.7 C

0 W/m

0.00 mm

18:40

19.2 C

1019.6 hpa

39 %

3.2 km/h aus 112

6.4 km/h aus N

4.9 C

17.7 C

19.2 C

17.7 C

0 W/m

0.00 mm

18:45

19.1 C

1019.6 hpa

38 %

1.6 km/h aus 114

8.0 km/h aus NNE

4.4 C

17.5 C

19.1 C

17.5 C

0 W/m

0.00 mm

18:50

18.8 C

1019.6 hpa

40 %

1.6 km/h aus 112

6.4 km/h aus NNE

4.9 C

17.4 C

18.8 C

17.4 C

0 W/m

0.00 mm

18:55

18.6 C

1019.6 hpa

40 %

1.6 km/h aus 111

4.8 km/h aus NNE

4.7 C

17.1 C

18.6 C

17.1 C

0 W/m

0.00 mm

19:00

18.4 C

1019.6 hpa

39 %

1.6 km/h aus 115

6.4 km/h aus NNE

4.2 C

16.9 C

18.4 C

16.9 C

0 W/m

0.00 mm

19:05

18.3 C

1019.6 hpa

43 %

1.6 km/h aus 112

4.8 km/h aus NNE

5.5 C

17.0 C

18.3 C

17.0 C

0 W/m

0.00 mm

19:10

18.2 C

1019.6 hpa

39 %

0.0 km/h aus 115

3.2 km/h aus NNE

4.0 C

16.7 C

18.2 C

16.7 C

0 W/m

0.00 mm

19:15

18.1 C

1019.6 hpa

39 %

0.0 km/h aus 115

3.2 km/h aus NNE

3.9 C

16.5 C

18.1 C

16.5 C

0 W/m

0.00 mm

19:20

17.8 C

1019.6 hpa

42 %

0.0 km/h aus 113

1.6 km/h aus NNE

4.7 C

16.4 C

17.8 C

16.4 C

0 W/m

0.00 mm

19:25

17.7 C

1019.6 hpa

43 %

1.6 km/h aus 110

3.2 km/h aus NNE

5.0 C

16.4 C

17.7 C

16.4 C

0 W/m

0.00 mm

19:30

17.7 C

1019.8 hpa

43 %

1.6 km/h aus 107

3.2 km/h aus NNE

4.9 C

16.3 C

17.7 C

16.3 C

0 W/m

0.00 mm

19:35

17.7 C

1019.8 hpa

44 %

0.0 km/h aus 114

3.2 km/h aus NNE

5.3 C

16.4 C

17.7 C

16.4 C

0 W/m

0.00 mm

19:40

17.6 C

1019.8 hpa

44 %

0.0 km/h aus 111

1.6 km/h aus NNE

5.2 C

16.3 C

17.6 C

16.3 C

0 W/m

0.00 mm

19:45

17.2 C

1019.9 hpa

48 %

0.0 km/h aus 116

1.6 km/h aus NNE

6.1 C

16.1 C

17.2 C

16.1 C

0 W/m

0.00 mm

19:50

16.8 C

1019.9 hpa

51 %

1.6 km/h aus 111

3.2 km/h aus NNE

6.6 C

15.8 C

16.8 C

15.8 C

0 W/m

0.00 mm

19:55

16.3 C

1019.9 hpa

52 %

0.0 km/h aus 110

1.6 km/h aus NNE

6.4 C

15.3 C

16.3 C

15.3 C

0 W/m

0.00 mm

20:00

15.9 C

1019.8 hpa

53 %

0.0 km/h aus 116

0.0 km/h aus ---

6.3 C

14.9 C

15.9 C

14.9 C

0 W/m

0.00 mm

20:05

15.4 C

1019.8 hpa

55 %

0.0 km/h aus 109

1.6 km/h aus NNE

6.4 C

14.6 C

15.4 C

14.6 C

0 W/m

0.00 mm

20:10

15.0 C

1019.8 hpa

58 %

0.0 km/h aus 113

0.0 km/h aus ---

6.8 C

14.2 C

15.0 C

14.2 C

0 W/m

0.00 mm

20:15

14.8 C

1019.7 hpa

61 %

0.0 km/h aus 110

0.0 km/h aus ---

7.3 C

14.1 C

14.8 C

14.1 C

0 W/m

0.00 mm

20:20

14.4 C

1019.7 hpa

58 %

0.0 km/h aus 115

1.6 km/h aus NNE

6.2 C

13.6 C

14.4 C

13.6 C

0 W/m

0.00 mm

20:25

13.9 C

1019.7 hpa

62 %

0.0 km/h aus 115

0.0 km/h aus ---

6.7 C

13.2 C

13.9 C

13.2 C

0 W/m

0.00 mm

20:30

13.4 C

1019.7 hpa

63 %

0.0 km/h aus 110

0.0 km/h aus ---

6.5 C

12.8 C

13.4 C

12.8 C

0 W/m

0.00 mm

20:35

13.1 C

1019.7 hpa

65 %

0.0 km/h aus 109

0.0 km/h aus ---

6.7 C

12.6 C

13.1 C

12.6 C

0 W/m

0.00 mm

20:40

12.9 C

1019.7 hpa

66 %

0.0 km/h aus 114

0.0 km/h aus ---

6.7 C

12.3 C

12.9 C

12.3 C

0 W/m

0.00 mm

20:45

12.6 C

1019.7 hpa

68 %

0.0 km/h aus 115

0.0 km/h aus ---

6.8 C

12.1 C

12.6 C

12.1 C

0 W/m

0.00 mm

20:50

12.3 C

1019.7 hpa

68 %

0.0 km/h aus 114

0.0 km/h aus ---

6.5 C

11.8 C

12.3 C

11.8 C

0 W/m

0.00 mm

20:55

12.2 C

1019.7 hpa

70 %

0.0 km/h aus 115

0.0 km/h aus ---

6.9 C

11.8 C

12.2 C

11.8 C

0 W/m

0.00 mm

21:00

12.2 C

1019.9 hpa

71 %

0.0 km/h aus 110

3.2 km/h aus NNE

7.1 C

11.8 C

12.2 C

11.8 C

0 W/m

0.00 mm

21:05

11.9 C

1019.9 hpa

71 %

0.0 km/h aus 106

0.0 km/h aus ---

6.8 C

11.6 C

11.9 C

11.6 C

0 W/m

0.00 mm

21:10

11.7 C

1019.9 hpa

72 %

0.0 km/h aus 114

0.0 km/h aus ---

6.8 C

11.3 C

11.7 C

11.3 C

0 W/m

0.00 mm

21:15

11.3 C

1020.1 hpa

73 %

0.0 km/h aus 108

0.0 km/h aus ---

6.6 C

11.0 C

11.3 C

11.0 C

0 W/m

0.00 mm

21:20

10.9 C

1020.1 hpa

74 %

0.0 km/h aus 108

0.0 km/h aus ---

6.4 C

10.7 C

10.9 C

10.7 C

0 W/m

0.00 mm

21:25

10.7 C

1020.1 hpa

75 %

0.0 km/h aus 108

0.0 km/h aus ---

6.4 C

10.5 C

10.7 C

10.5 C

0 W/m

0.00 mm

21:30

10.6 C

1020.2 hpa

76 %

0.0 km/h aus 101

0.0 km/h aus ---

6.5 C

10.4 C

10.6 C

10.4 C

0 W/m

0.00 mm

21:35

10.4 C

1020.2 hpa

75 %

0.0 km/h aus 113

0.0 km/h aus ---

6.1 C

10.2 C

10.4 C

10.2 C

0 W/m

0.00 mm

21:40

10.2 C

1020.2 hpa

76 %

0.0 km/h aus 108

0.0 km/h aus ---

6.2 C

10.1 C

10.2 C

10.1 C

0 W/m

0.00 mm

21:45

10.2 C

1020.2 hpa

75 %

0.0 km/h aus 113

0.0 km/h aus ---

5.9 C

10.1 C

10.2 C

10.1 C

0 W/m

0.00 mm

21:50

10.0 C

1020.2 hpa

75 %

0.0 km/h aus 110

3.2 km/h aus NNE

5.8 C

9.9 C

10.0 C

9.9 C

0 W/m

0.00 mm

21:55

9.8 C

1020.2 hpa

75 %

1.6 km/h aus 106

3.2 km/h aus NNE

5.6 C

9.7 C

9.8 C

9.7 C

0 W/m

0.00 mm

22:00

9.7 C

1020.2 hpa

76 %

0.0 km/h aus 113

0.0 km/h aus ---

5.7 C

9.6 C

9.7 C

9.6 C

0 W/m

0.00 mm

22:05

9.7 C

1020.2 hpa

78 %

0.0 km/h aus 107

1.6 km/h aus NNE

6.0 C

9.6 C

9.7 C

9.6 C

0 W/m

0.00 mm

22:10

9.9 C

1020.2 hpa

78 %

1.6 km/h aus 106

3.2 km/h aus NNE

6.2 C

9.8 C

9.9 C

9.8 C

0 W/m

0.00 mm

22:15

9.7 C

1020.2 hpa

77 %

0.0 km/h aus 113

0.0 km/h aus ---

5.9 C

9.6 C

9.7 C

9.6 C

0 W/m

0.00 mm

22:20

9.3 C

1020.2 hpa

79 %

0.0 km/h aus 111

0.0 km/h aus ---

5.8 C

9.2 C

9.3 C

9.2 C

0 W/m

0.00 mm

22:25

9.1 C

1020.2 hpa

79 %

1.6 km/h aus 108

3.2 km/h aus NNE

5.6 C

9.0 C

9.1 C

9.0 C

0 W/m

0.00 mm

22:30

8.5 C

1020.2 hpa

79 %

3.2 km/h aus 100

4.8 km/h aus NNE

5.1 C

8.4 C

8.5 C

8.4 C

0 W/m

0.00 mm

22:35

8.3 C

1020.2 hpa

82 %

3.2 km/h aus 106

4.8 km/h aus NNE

5.4 C

8.2 C

8.3 C

8.2 C

0 W/m

0.00 mm

22:40

8.2 C

1020.2 hpa

82 %

3.2 km/h aus 109

4.8 km/h aus NNE

5.3 C

8.1 C

8.2 C

8.1 C

0 W/m

0.00 mm

22:45

8.0 C

1020.1 hpa

82 %

3.2 km/h aus 108

4.8 km/h aus NNE

5.1 C

7.9 C

8.0 C

7.9 C

0 W/m

0.00 mm

22:50

7.9 C

1020.1 hpa

83 %

3.2 km/h aus 111

4.8 km/h aus NNE

5.2 C

7.9 C

7.9 C

7.9 C

0 W/m

0.00 mm

22:55

7.9 C

1020.1 hpa

83 %

3.2 km/h aus 105

3.2 km/h aus NNE

5.2 C

7.9 C

7.9 C

7.9 C

0 W/m

0.00 mm

23:00

7.9 C

1020.2 hpa

83 %

1.6 km/h aus 115

4.8 km/h aus NNE

5.2 C

7.9 C

7.9 C

7.9 C

0 W/m

0.00 mm

23:05

8.7 C

1020.2 hpa

84 %

8.0 km/h aus 112

20.9 km/h aus NW

6.1 C

7.4 C

7.4 C

8.7 C

0 W/m

0.00 mm

23:10

9.7 C

1020.2 hpa

80 %

6.4 km/h aus 109

11.3 km/h aus NW

6.4 C

8.9 C

9.0 C

9.6 C

0 W/m

0.00 mm

23:15

10.3 C

1020.5 hpa

77 %

4.8 km/h aus 114

9.7 km/h aus NNW

6.4 C

10.1 C

10.2 C

10.2 C

0 W/m

0.00 mm

23:20

10.7 C

1020.5 hpa

75 %

4.8 km/h aus 109

8.0 km/h aus NNW

6.4 C

10.4 C

10.6 C

10.5 C

0 W/m

0.00 mm

23:25

10.9 C

1020.5 hpa

73 %

4.8 km/h aus 109

14.5 km/h aus NNW

6.2 C

10.6 C

10.8 C

10.7 C

0 W/m

0.00 mm

23:30

10.9 C

1020.7 hpa

73 %

3.2 km/h aus 111

6.4 km/h aus NNW

6.3 C

10.7 C

10.9 C

10.7 C

0 W/m

0.00 mm

23:35

10.8 C

1020.7 hpa

73 %

1.6 km/h aus 111

6.4 km/h aus NNW

6.2 C

10.6 C

10.8 C

10.6 C

0 W/m

0.00 mm

23:40

10.5 C

1020.7 hpa

74 %

1.6 km/h aus 109

4.8 km/h aus NNW

6.1 C

10.3 C

10.5 C

10.3 C

0 W/m

0.00 mm

23:45

10.1 C

1020.7 hpa

75 %

1.6 km/h aus 107

4.8 km/h aus NNW

5.8 C

9.9 C

10.1 C

9.9 C

0 W/m

0.00 mm

23:50

9.4 C

1020.7 hpa

77 %

1.6 km/h aus 104

3.2 km/h aus NNW

5.6 C

9.3 C

9.4 C

9.3 C

0 W/m

0.00 mm

23:55

8.8 C

1020.7 hpa

79 %

1.6 km/h aus 107

4.8 km/h aus NNW

5.4 C

8.8 C

8.8 C

8.8 C

0 W/m

0.00 mm